FW0538 Weather Reports


time (UTC)temp
C
wind
direction
speed
KPH
gust
KPH
rain 1hr
cm
rain 24hr
cm
rain mn
cm
humidity
%
barometer
mb
20260503054538 10 337 1.6 8.0 0.00 0.13 0.13 81 1011.4
20260503053033 10 334 1.6 6.4 0.00 0.13 0.13 79 1011.4
20260503051532 11 331 0.0 3.2 0.00 0.13 0.13 75 1011.3
20260503050032 11 321 6.4 9.7 0.00 0.13 0.13 74 1011.4
20260503044539 11 292 0.0 6.4 0.00 0.13 0.13 74 1011.8
20260503043028 11 92 0.0 4.8 0.00 0.13 0.13 70 1011.2
20260503041529 11 94 1.6 11.3 0.00 0.13 0.13 71 1011.2
20260503040027 11 86 0.0 6.4 0.00 0.13 0.13 78 1011.1
20260503034526 10 115 0.0 3.2 0.00 0.13 0.13 82 1011.3
20260503033024 10 332 0.0 1.6 0.00 0.13 0.13 82 1010.8
20260503031523 10 331 3.2 12.9 0.00 0.13 0.13 81 1010.3
20260503030022 10 326 8.0 14.5 0.00 0.13 0.13 81 1010.1
20260503024521 10 347 8.0 16.1 0.00 0.13 0.13 81 1010.0
20260503023026 10 335 12.9 20.9 0.00 0.13 0.13 89 1009.8
20260503021519 10 323 9.7 17.7 0.00 0.13 0.13 91 1009.9
20260503020017 10 320 8.0 19.3 0.05 0.13 0.13 91 1009.8
20260503014517 10 292 8.0 14.5 0.13 0.13 0.13 91 1009.5
20260503013024 10 342 1.6 16.1 0.13 0.13 0.13 92 1009.6
20260503011512 10 31 3.2 16.1 0.13 0.13 0.13 91 1010.3
20260503010010 11 78 4.8 22.5 0.08 0.08 0.08 84 1010.6
20260503004507 15 112 4.8 14.5 0.00 0.00 0.00 49 1010.2
20260503003006 16 105 1.6 9.7 0.00 0.00 0.00 44 1009.1
20260503001506 16 336 0.0 11.3 0.00 0.00 0.00 44 1008.6
20260503000005 16 352 3.2 14.5 0.00 0.00 0.00 46 1008.5
20260502234505 16 25 4.8 12.9 0.00 0.00 0.00 43 1008.0
20260502233004 17 61 9.7 20.9 0.00 0.00 0.00 42 1007.8
20260502231507 17 10 6.4 19.3 0.00 0.00 0.00 41 1007.9
20260502230000 17 342 6.4 20.9 0.00 0.00 0.00 40 1007.8
20260502224602 18 26 12.9 22.5 0.00 0.00 0.00 39 1008.0
20260502223058 18 298 3.2 8.0 0.00 0.00 0.00 32 1008.3
20260502221559 18 236 6.4 12.9 0.00 0.00 0.00 32 1008.3
20260502220055 18 157 9.7 20.9 0.00 0.00 0.00 30 1008.5
20260502214554 19 199 11.3 20.9 0.00 0.00 0.00 31 1008.8
20260502213052 20 154 9.7 17.7 0.00 0.00 0.00 31 1009.0
20260502211552 19 101 8.0 16.1 0.00 0.00 0.00 31 1009.4
20260502210051 19 158 1.6 11.3 0.00 0.00 0.00 32 1009.4
20260502204552 19 148 8.0 17.7 0.00 0.00 0.00 32 1009.5
20260502203049 19 160 8.0 19.3 0.00 0.00 0.00 31 1009.5
20260502201548 19 163 12.9 24.1 0.00 0.00 0.00 31 1009.5
20260502200048 20 250 9.7 19.3 0.00 0.00 0.00 30 1009.7
20260502194552 20 101 0.0 25.7 0.00 0.00 0.00 31 1009.7
20260502193059 20 162 14.5 24.1 0.00 0.00 0.00 30 1009.8
20260502191554 20 175 6.4 24.1 0.00 0.00 0.00 30 1009.8
20260502190044 20 198 14.5 24.1 0.00 0.00 0.00 29 1010.0
20260502184554 20 120 1.6 19.3 0.00 0.00 0.00 31 1010.1
20260502183042 19 176 4.8 19.3 0.00 0.00 0.00 31 1010.2
20260502181547 20 160 12.9 17.7 0.00 0.00 0.00 30 1010.5
20260502163036 17 132 6.4 11.3 0.00 0.00 0.00 36 1010.7
20260502161539 17 155 0.0 4.8 0.00 0.00 0.00 38 1010.8
20260502151515 13 359 0.0 3.2 0.00 0.00 0.00 44 1010.7
20260502123003 9 1 0.0 3.2 0.00 0.00 0.00 46 1009.5
20260502121502 9 356 0.0 4.8 0.00 0.00 0.00 45 1009.5
20260502120134 10 20 0.0 0.0 0.00 0.00 0.00 47 1009.3
20260502114559 10 20 0.0 0.0 0.00 0.00 0.00 47 1009.3
20260502113058 10 20 0.0 1.6 0.00 0.00 0.00 49 1009.4
20260502111555 10 20 0.0 3.2 0.00 0.00 0.00 44 1009.4
20260502110054 10 20 0.0 4.8 0.00 0.00 0.00 41 1009.4
20260502104554 10 359 0.0 3.2 0.00 0.00 0.00 40 1009.4
20260502103051 10 357 1.6 4.8 0.00 0.00 0.00 39 1009.5
20260502101555 10 4 0.0 1.6 0.00 0.00 0.00 36 1009.4
20260502071529 12 27 1.6 3.2 0.00 0.00 0.00 28 1010.8